Location: Oberkirch
(48.5323°N, 8.0787°E)
Time: 20:46:56
(UTC+00:00)

Transit 2A - Visible Passes

Search period start: 18 February 2026 00:00
Search period end: 28 February 2026 00:00
Orbit: 589 x 955 km, 66.7° (Epoch: 18 February)

Date Brightness Start Highest point End Pass type
(mag) Time Alt. Az. Time Alt. Az. Time Alt. Az.
18 Feb 7.5 18:30:50 10° NNW 18:35:50 25° NNE 18:37:34 22° NE visible
18 Feb 7.2 20:13:48 10° NW 20:17:55 43° NNW 20:17:55 43° NNW visible
18 Feb 9.1 21:58:04 10° WNW 21:58:15 11° WNW 21:58:15 11° WNW visible
19 Feb 7.8 17:54:30 10° NNW 17:59:03 21° NNE 18:02:28 13° ENE visible
19 Feb 6.5 19:37:26 10° NNW 19:42:49 55° NNE 19:42:49 55° NNE visible
19 Feb 8.6 21:21:10 10° NW 21:23:10 19° WNW 21:23:10 19° WNW visible
20 Feb 6.6 19:01:07 10° NNW 19:06:58 45° NE 19:07:47 42° ENE visible
20 Feb 7.8 20:44:29 10° NW 20:48:08 32° WNW 20:48:08 32° WNW visible
21 Feb 7.0 18:24:47 10° NNW 18:30:22 35° NE 18:32:47 25° E visible
21 Feb 6.7 20:07:57 10° NW 20:13:09 55° W 20:13:09 55° W visible
22 Feb 7.4 17:48:29 10° NNW 17:53:42 28° NNE 17:57:53 13° E visible
22 Feb 6.1 19:31:30 10° NW 19:37:34 83° WSW 19:38:15 70° SSE visible
22 Feb 8.7 21:16:21 10° WNW 21:18:37 15° W 21:18:37 15° W visible
23 Feb 6.1 18:55:05 10° NNW 19:01:10 73° NE 19:03:25 38° SE visible
23 Feb 8.1 20:39:09 10° WNW 20:43:36 23° WSW 20:43:47 23° WSW visible
24 Feb 6.4 18:18:44 10° NNW 18:24:42 54° NE 18:28:41 19° ESE visible
24 Feb 7.6 20:02:20 10° NW 20:07:31 33° WSW 20:09:04 28° SW visible
25 Feb 6.8 17:42:24 10° NNW 17:48:09 41° NE 17:53:25 10° ESE visible
25 Feb 7.0 19:25:42 10° NW 19:31:22 47° WSW 19:34:27 23° S visible
26 Feb 6.5 18:49:12 10° NW 18:55:07 66° WSW 18:59:59 13° SSE visible
26 Feb 8.9 20:35:15 10° W 20:36:55 11° W 20:38:33 10° WSW visible
27 Feb 6.2 18:12:45 10° NW 18:18:47 89° NE 18:24:14 10° SE visible
27 Feb 8.6 19:57:19 10° WNW 20:00:57 17° WSW 20:04:24 10° SW visible
